Location: Moena
(46.3667°N, 11.6500°E)
Time: 10:10:19
(UTC+00:00)

GP-B - Pass Details

Date: 21 June 2021
Orbit: 631 x 635 km, 89.8° (Epoch: 28 July)

Event Time Altitude Azimuth Distance (km) Brightness Sun altitude
Rises 23:39:54 0° 354° (N) 2,944 8.0 -20.0°
Reaches altitude 10° 23:42:14 10° 347° (NNW) 2,030 6.7 -19.9°
Maximum altitude 23:46:22 39° 279° (W) 952 4.0 -19.8°
Enters shadow 23:47:39 32° 241° (WSW) 1,098 4.0 -19.8°
